| time (UTC) | temp F | wind direction | speed MPH | gust MPH | rain 1hr in | rain 24hr in | rain mn in | humidity % | barometer mb |
| 20260509051534 | 66 | 81 | 2.0 | 7.0 | 0.00 | 0.00 | 0.00 | 19 | 1015.7 |
| 20260509050033 | 67 | 93 | 4.0 | 9.0 | 0.00 | 0.00 | 0.00 | 18 | 1015.8 |
| 20260509044534 | 68 | 83 | 6.0 | 11.0 | 0.00 | 0.00 | 0.00 | 17 | 1015.8 |
| 20260509043032 | 69 | 88 | 7.0 | 9.0 | 0.00 | 0.00 | 0.00 | 16 | 1015.6 |
| 20260509041542 | 70 | 81 | 2.0 | 6.0 | 0.00 | 0.00 | 0.00 | 15 | 1015.6 |
| 20260509040032 | 69 | 94 | 4.0 | 8.0 | 0.00 | 0.00 | 0.00 | 15 | 1015.4 |
| 20260509034530 | 67 | 106 | 1.0 | 4.0 | 0.00 | 0.00 | 0.00 | 16 | 1015.3 |
| 20260509033030 | 65 | 129 | 0.0 | 0.0 | 0.00 | 0.00 | 0.00 | 16 | 1015.2 |
| 20260509031530 | 67 | 112 | 0.0 | 1.0 | 0.00 | 0.00 | 0.00 | 16 | 1014.9 |
| 20260509030031 | 69 | 95 | 0.0 | 1.0 | 0.00 | 0.00 | 0.00 | 14 | 1014.7 |
| 20260509024529 | 71 | 83 | 0.0 | 0.0 | 0.00 | 0.00 | 0.00 | 13 | 1014.5 |
| 20260509023028 | 72 | 56 | 0.0 | 0.0 | 0.00 | 0.00 | 0.00 | 13 | 1014.4 |
| 20260509021528 | 73 | 309 | 0.0 | 0.0 | 0.00 | 0.00 | 0.00 | 12 | 1014.3 |
| 20260509020027 | 75 | 316 | 0.0 | 2.0 | 0.00 | 0.00 | 0.00 | 11 | 1014.2 |
| 20260509014527 | 77 | 301 | 0.0 | 4.0 | 0.00 | 0.00 | 0.00 | 11 | 1013.9 |
| 20260509013026 | 78 | 338 | 3.0 | 8.0 | 0.00 | 0.00 | 0.00 | 10 | 1013.8 |
| 20260509011529 | 80 | 319 | 0.0 | 7.0 | 0.00 | 0.00 | 0.00 | 10 | 1013.6 |
| 20260509010038 | 81 | 301 | 1.0 | 9.0 | 0.00 | 0.00 | 0.00 | 9 | 1013.5 |
| 20260509004528 | 81 | 298 | 3.0 | 11.0 | 0.00 | 0.00 | 0.00 | 10 | 1013.4 |
| 20260509003023 | 82 | 350 | 1.0 | 6.0 | 0.00 | 0.00 | 0.00 | 9 | 1013.3 |
| 20260509001516 | 83 | 337 | 0.0 | 8.0 | 0.00 | 0.00 | 0.00 | 9 | 1013.3 |
| 20260509000110 | 83 | 280 | 2.0 | 7.0 | 0.00 | 0.00 | 0.00 | 9 | 1013.3 |
| 20260508234556 | 83 | 238 | 0.0 | 8.0 | 0.00 | 0.00 | 0.00 | 9 | 1013.2 |
| 20260508233020 | 83 | 306 | 2.0 | 6.0 | 0.00 | 0.00 | 0.00 | 9 | 1013.2 |
| 20260508231620 | 83 | 134 | 0.0 | 4.0 | 0.00 | 0.00 | 0.00 | 9 | 1013.1 |
| 20260508224538 | 83 | 31 | 3.0 | 11.0 | 0.00 | 0.00 | 0.00 | 8 | 1013.1 |
| 20260508223123 | 82 | 333 | 0.0 | 7.0 | 0.00 | 0.00 | 0.00 | 8 | 1013.1 |
| 20260508221613 | 82 | 22 | 1.0 | 7.0 | 0.00 | 0.00 | 0.00 | 9 | 1013.2 |
| 20260508214530 | 82 | 326 | 3.0 | 11.0 | 0.00 | 0.00 | 0.00 | 9 | 1013.6 |
| 20260508213027 | 82 | 27 | 8.0 | 11.0 | 0.00 | 0.00 | 0.00 | 9 | 1013.9 |
| 20260508211525 | 82 | 17 | 1.0 | 8.0 | 0.00 | 0.00 | 0.00 | 9 | 1013.9 |
| 20260508210024 | 82 | 356 | 8.0 | 18.0 | 0.00 | 0.00 | 0.00 | 9 | 1014.2 |
| 20260508204519 | 81 | 19 | 3.0 | 10.0 | 0.00 | 0.00 | 0.00 | 9 | 1014.3 |
| 20260508203017 | 82 | 27 | 4.0 | 11.0 | 0.00 | 0.00 | 0.00 | 10 | 1014.5 |
| 20260508201513 | 81 | 278 | 3.0 | 19.0 | 0.00 | 0.00 | 0.00 | 9 | 1014.7 |
| 20260508200013 | 80 | 309 | 2.0 | 11.0 | 0.00 | 0.00 | 0.00 | 10 | 1014.9 |
| 20260508194508 | 81 | 16 | 9.0 | 15.0 | 0.00 | 0.00 | 0.00 | 11 | 1015.1 |
| 20260508193005 | 80 | 353 | 6.0 | 14.0 | 0.00 | 0.00 | 0.00 | 11 | 1015.1 |
| 20260508191619 | 79 | 5 | 1.0 | 11.0 | 0.00 | 0.00 | 0.00 | 11 | 1015.2 |
| 20260508184546 | 79 | 291 | 9.0 | 16.0 | 0.00 | 0.00 | 0.00 | 11 | 1015.7 |
| 20260508183007 | 78 | 76 | 0.0 | 12.0 | 0.00 | 0.00 | 0.00 | 13 | 1015.6 |
| 20260508181607 | 78 | 287 | 5.0 | 13.0 | 0.00 | 0.00 | 0.00 | 12 | 1015.8 |
| 20260508174542 | 77 | 16 | 3.0 | 10.0 | 0.00 | 0.00 | 0.00 | 14 | 1016.5 |
| 20260508173010 | 76 | 22 | 3.0 | 12.0 | 0.00 | 0.00 | 0.00 | 15 | 1016.7 |
| 20260508171611 | 75 | 15 | 5.0 | 15.0 | 0.00 | 0.00 | 0.00 | 14 | 1017.0 |
| 20260508164520 | 73 | 274 | 0.0 | 3.0 | 0.00 | 0.00 | 0.00 | 16 | 1017.3 |
| 20260508163133 | 72 | 100 | 0.0 | 3.0 | 0.00 | 0.00 | 0.00 | 17 | 1017.3 |
| 20260508161535 | 72 | 82 | 0.0 | 0.0 | 0.00 | 0.00 | 0.00 | 17 | 1017.5 |
| 20260508154532 | 71 | 310 | 0.0 | 0.0 | 0.00 | 0.00 | 0.00 | 23 | 1017.7 |
| 20260508153027 | 69 | 152 | 0.0 | 1.0 | 0.00 | 0.00 | 0.00 | 24 | 1017.7 |
| 20260508151524 | 69 | 17 | 0.0 | 0.0 | 0.00 | 0.00 | 0.00 | 25 | 1018.1 |
| 20260508150018 | 66 | 271 | 0.0 | 0.0 | 0.00 | 0.00 | 0.00 | 27 | 1018.2 |
| 20260508144513 | 66 | 88 | 0.0 | 1.0 | 0.00 | 0.00 | 0.00 | 28 | 1018.2 |
| 20260508143011 | 64 | 150 | 0.0 | 1.0 | 0.00 | 0.00 | 0.00 | 30 | 1018.3 |
| 20260508141507 | 63 | 107 | 0.0 | 1.0 | 0.00 | 0.00 | 0.00 | 30 | 1018.4 |
| 20260508140002 | 61 | 112 | 0.0 | 3.0 | 0.00 | 0.00 | 0.00 | 30 | 1018.4 |
| 20260508134600 | 58 | 150 | 0.0 | 0.0 | 0.00 | 0.00 | 0.00 | 34 | 1018.5 |
| 20260508133055 | 53 | 105 | 0.0 | 0.0 | 0.00 | 0.00 | 0.00 | 39 | 1018.6 |
| 20260508131559 | 48 | 121 | 0.0 | 0.0 | 0.00 | 0.00 | 0.00 | 44 | 1018.4 |
| 20260508130109 | 43 | 112 | 0.0 | 0.0 | 0.00 | 0.00 | 0.00 | 49 | 1018.4 |
| 20260508124552 | 39 | 84 | 0.0 | 0.0 | 0.00 | 0.00 | 0.00 | 55 | 1018.4 |
| 20260508123052 | 36 | 23 | 0.0 | 0.0 | 0.00 | 0.00 | 0.00 | 59 | 1018.2 |
| 20260508121556 | 36 | 30 | 0.0 | 0.0 | 0.00 | 0.00 | 0.00 | 59 | 1017.9 |
| 20260508120044 | 38 | 104 | 0.0 | 0.0 | 0.00 | 0.00 | 0.00 | 58 | 1017.6 |
| 20260508114542 | 38 | 97 | 0.0 | 0.0 | 0.00 | 0.00 | 0.00 | 56 | 1017.4 |
| 20260508113045 | 38 | 97 | 0.0 | 0.0 | 0.00 | 0.00 | 0.00 | 55 | 1017.2 |
| 20260508111540 | 38 | 97 | 0.0 | 0.0 | 0.00 | 0.00 | 0.00 | 56 | 1017.4 |
| 20260508110037 | 37 | 30 | 0.0 | 0.0 | 0.00 | 0.00 | 0.00 | 56 | 1017.5 |
| 20260508104601 | 38 | 76 | 0.0 | 0.0 | 0.00 | 0.00 | 0.00 | 56 | 1017.2 |
| 20260508103042 | 38 | 10 | 0.0 | 0.0 | 0.00 | 0.00 | 0.00 | 56 | 1017.2 |
| 20260508101529 | 38 | 322 | 0.0 | 0.0 | 0.00 | 0.00 | 0.00 | 56 | 1017.0 |
| 20260508100025 | 40 | 348 | 0.0 | 0.0 | 0.00 | 0.00 | 0.00 | 53 | 1016.9 |
| 20260508094523 | 41 | 128 | 0.0 | 0.0 | 0.00 | 0.00 | 0.00 | 54 | 1016.7 |
| 20260508093021 | 40 | 19 | 0.0 | 0.0 | 0.00 | 0.00 | 0.00 | 52 | 1016.8 |
| 20260508091517 | 42 | 19 | 0.0 | 0.0 | 0.00 | 0.00 | 0.00 | 50 | 1016.8 |
| 20260508090016 | 44 | 358 | 0.0 | 0.0 | 0.00 | 0.00 | 0.00 | 46 | 1016.9 |
| 20260508084508 | 46 | 359 | 0.0 | 0.0 | 0.00 | 0.00 | 0.00 | 43 | 1016.8 |
| 20260508083004 | 47 | 102 | 0.0 | 0.0 | 0.00 | 0.00 | 0.00 | 40 | 1016.8 |
| 20260508081503 | 49 | 129 | 0.0 | 0.0 | 0.00 | 0.00 | 0.00 | 39 | 1016.9 |
| 20260508080113 | 48 | 133 | 0.0 | 0.0 | 0.00 | 0.00 | 0.00 | 40 | 1017.0 |
| 20260508074558 | 48 | 142 | 0.0 | 0.0 | 0.00 | 0.00 | 0.00 | 40 | 1017.1 |
| 20260508073055 | 49 | 129 | 0.0 | 0.0 | 0.00 | 0.00 | 0.00 | 39 | 1017.2 |
| 20260508071600 | 49 | 133 | 0.0 | 0.0 | 0.00 | 0.00 | 0.00 | 38 | 1017.3 |
| 20260508070135 | 51 | 132 | 0.0 | 0.0 | 0.00 | 0.00 | 0.00 | 36 | 1017.4 |
| 20260508064547 | 51 | 133 | 0.0 | 0.0 | 0.00 | 0.00 | 0.00 | 35 | 1017.4 |
| 20260508063041 | 52 | 122 | 0.0 | 0.0 | 0.00 | 0.00 | 0.00 | 35 | 1017.4 |
| 20260508061542 | 54 | 125 | 0.0 | 0.0 | 0.00 | 0.00 | 0.00 | 36 | 1017.4 |
| 20260508060034 | 55 | 105 | 0.0 | 0.0 | 0.00 | 0.00 | 0.00 | 38 | 1017.4 |
| 20260508054532 | 56 | 108 | 0.0 | 0.0 | 0.00 | 0.00 | 0.00 | 38 | 1017.4 |
| 20260508053031 | 58 | 129 | 0.0 | 0.0 | 0.00 | 0.00 | 0.00 | 36 | 1017.4 |